User: anonymous   Login
Location: Unspecified
(0.0000°N, 0.0000°E)
Time: 12:37:22
(UTC+00:00)
Language:

CAPE 1 - Orbit

View from above orbital plane
View from above orbital plane
View from above satellite
View from above satellite

Ground track
Ground track

The orbit data is extracted from the following two-line orbital elements,

1 31130U 07012P   18114.84459124 +.00000155 +00000-0 +43595-4 0  9991
2 31130 098.1198 059.8986 0095284 312.4179 046.8986 14.56280383584611
Epoch (UTC): 24 April 2018 20:16:12
Eccentricity: 0.0095284
inclination: 98.1198°
perigee height: 638 km
apogee height: 773 km
right ascension of ascending node: 59.8986°
argument of perigee: 312.4179°
revolutions per day: 14.56280383
mean anomaly at epoch: 46.8986°
orbit number at epoch: 58461

The dashed part of the orbit path shows where the satellite is in the earth's shadow,  

DLR